| time (UTC) | temp F | wind direction | speed MPH | gust MPH | rain 1hr in | rain 24hr in | rain mn in | humidity % | barometer mb |
| 20260904224502 | 83 | 297 | 6.0 | 9.0 | 0.00 | 0.00 | 0.00 | 34 | 1019.7 |
| 20260904223003 | 84 | 273 | 6.0 | 8.0 | 0.00 | 0.00 | 0.00 | 34 | 1019.5 |
| 20260904220002 | 85 | 319 | 6.0 | 10.0 | 0.00 | 0.00 | 0.00 | 32 | 1019.5 |
| 20260904211502 | 85 | 213 | 3.0 | 7.0 | 0.00 | 0.00 | 0.00 | 34 | 1020.1 |
| 20260904210004 | 85 | 245 | 6.0 | 11.0 | 0.00 | 0.00 | 0.00 | 34 | 1020.4 |
| 20260904203001 | 84 | 285 | 5.0 | 11.0 | 0.00 | 0.00 | 0.00 | 35 | 1020.8 |
| 20260904201502 | 84 | 228 | 3.0 | 8.0 | 0.00 | 0.00 | 0.00 | 38 | 1021.1 |
| 20260904200003 | 82 | 329 | 3.0 | 6.0 | 0.00 | 0.00 | 0.00 | 41 | 1021.1 |
| 20260904194501 | 79 | 46 | 3.0 | 7.0 | 0.00 | 0.00 | 0.00 | 44 | 1021.6 |
| 20260904193001 | 78 | 132 | 4.0 | 7.0 | 0.00 | 0.00 | 0.00 | 47 | 1021.8 |
| 20260904191503 | 76 | 184 | 3.0 | 7.0 | 0.00 | 0.00 | 0.00 | 50 | 1022.0 |
| 20260904190004 | 76 | 273 | 5.0 | 8.0 | 0.00 | 0.00 | 0.00 | 51 | 1022.1 |
| 20260904184501 | 76 | 195 | 3.0 | 6.0 | 0.00 | 0.00 | 0.00 | 51 | 1022.2 |
| 20260904183002 | 76 | 229 | 5.0 | 8.0 | 0.00 | 0.00 | 0.00 | 50 | 1022.4 |
| 20260904180006 | 76 | 251 | 6.0 | 9.0 | 0.00 | 0.00 | 0.00 | 51 | 1022.9 |
| 20260904174504 | 75 | 221 | 4.0 | 8.0 | 0.00 | 0.00 | 0.00 | 51 | 1023.1 |
| 20260904173002 | 75 | 273 | 5.0 | 10.0 | 0.00 | 0.00 | 0.00 | 52 | 1023.5 |
| 20260904171502 | 75 | 232 | 4.0 | 6.0 | 0.00 | 0.00 | 0.00 | 54 | 1023.6 |
| 20260904170001 | 72 | 258 | 7.0 | 10.0 | 0.00 | 0.00 | 0.00 | 57 | 1023.7 |
| 20260904164503 | 71 | 225 | 6.0 | 10.0 | 0.00 | 0.00 | 0.00 | 59 | 1023.8 |
| 20260904163001 | 70 | 200 | 5.0 | 12.0 | 0.00 | 0.00 | 0.00 | 63 | 1023.9 |
| 20260904161501 | 70 | 217 | 7.0 | 12.0 | 0.00 | 0.00 | 0.00 | 63 | 1023.7 |
| 20260904160001 | 69 | 210 | 6.0 | 10.0 | 0.00 | 0.00 | 0.00 | 65 | 1023.6 |
| 20260904154500 | 68 | 209 | 6.0 | 12.0 | 0.00 | 0.00 | 0.00 | 66 | 1023.5 |
| 20260904151501 | 69 | 186 | 6.0 | 10.0 | 0.00 | 0.00 | 0.00 | 67 | 1023.2 |
| 20260904150002 | 70 | 191 | 5.0 | 7.0 | 0.00 | 0.00 | 0.00 | 64 | 1022.9 |
| 20260904144500 | 70 | 223 | 5.0 | 9.0 | 0.00 | 0.00 | 0.00 | 58 | 1022.9 |
| 20260904143000 | 69 | 224 | 3.0 | 8.0 | 0.00 | 0.00 | 0.00 | 58 | 1022.9 |
| 20260904141502 | 69 | 26 | 1.0 | 3.0 | 0.00 | 0.00 | 0.00 | 60 | 1022.8 |
| 20260904140003 | 69 | 296 | 1.0 | 3.0 | 0.00 | 0.00 | 0.00 | 60 | 1022.8 |
| 20260904134502 | 68 | 117 | 3.0 | 7.0 | 0.00 | 0.00 | 0.00 | 59 | 1022.5 |
| 20260904131502 | 67 | 42 | 3.0 | 6.0 | 0.00 | 0.00 | 0.00 | 60 | 1022.2 |
| 20260904130000 | 68 | 278 | 2.0 | 5.0 | 0.00 | 0.00 | 0.00 | 59 | 1021.8 |
| 20260904123000 | 68 | 225 | 2.0 | 6.0 | 0.00 | 0.00 | 0.00 | 59 | 1021.2 |
| 20260904121502 | 68 | 307 | 1.0 | 3.0 | 0.00 | 0.00 | 0.00 | 58 | 1021.1 |
| 20260904120001 | 68 | 143 | 0.0 | 2.0 | 0.00 | 0.00 | 0.00 | 58 | 1021.1 |
| 20260904114504 | 69 | 360 | 1.0 | 3.0 | 0.00 | 0.00 | 0.00 | 57 | 1020.9 |
| 20260904111500 | 69 | 39 | 1.0 | 3.0 | 0.00 | 0.00 | 0.00 | 56 | 1020.5 |
| 20260904110000 | 70 | 51 | 2.0 | 4.0 | 0.00 | 0.00 | 0.00 | 56 | 1020.5 |
| 20260904102959 | 70 | 129 | 1.0 | 3.0 | 0.00 | 0.00 | 0.00 | 55 | 1020.3 |
| 20260904101459 | 71 | 79 | 1.0 | 3.0 | 0.00 | 0.00 | 0.00 | 55 | 1020.0 |
| 20260904100002 | 71 | 226 | 0.0 | 2.0 | 0.00 | 0.00 | 0.00 | 55 | 1019.9 |
| 20260904094501 | 71 | 226 | 1.0 | 3.0 | 0.00 | 0.00 | 0.00 | 53 | 1019.9 |
| 20260904093000 | 71 | 306 | 1.0 | 2.0 | 0.00 | 0.00 | 0.00 | 53 | 1019.9 |
| 20260904090002 | 72 | 272 | 2.0 | 4.0 | 0.00 | 0.00 | 0.00 | 51 | 1019.9 |
| 20260904084500 | 72 | 51 | 1.0 | 3.0 | 0.00 | 0.00 | 0.00 | 50 | 1019.9 |
| 20260904083000 | 72 | 69 | 4.0 | 5.0 | 0.00 | 0.00 | 0.00 | 50 | 1019.7 |
| 20260904081501 | 73 | 65 | 5.0 | 8.0 | 0.00 | 0.00 | 0.00 | 49 | 1019.8 |
| 20260904080002 | 72 | 98 | 6.0 | 8.0 | 0.00 | 0.00 | 0.00 | 50 | 1019.9 |
| 20260904074501 | 72 | 101 | 6.0 | 10.0 | 0.00 | 0.00 | 0.00 | 50 | 1019.9 |
| 20260904073001 | 73 | 70 | 4.0 | 7.0 | 0.00 | 0.00 | 0.00 | 49 | 1019.9 |
| 20260904071501 | 73 | 63 | 3.0 | 5.0 | 0.00 | 0.00 | 0.00 | 49 | 1019.9 |
| 20260904070002 | 73 | 67 | 4.0 | 7.0 | 0.00 | 0.00 | 0.00 | 48 | 1020.0 |
| 20260904063001 | 73 | 93 | 5.0 | 8.0 | 0.00 | 0.00 | 0.00 | 47 | 1020.0 |
| 20260904061502 | 73 | 81 | 6.0 | 9.0 | 0.00 | 0.00 | 0.00 | 47 | 1020.0 |
| 20260904054503 | 72 | 63 | 3.0 | 5.0 | 0.00 | 0.00 | 0.00 | 48 | 1019.9 |
| 20260904050002 | 72 | 96 | 1.0 | 3.0 | 0.00 | 0.00 | 0.00 | 48 | 1020.5 |
| 20260904044502 | 72 | 69 | 1.0 | 3.0 | 0.00 | 0.00 | 0.00 | 47 | 1020.4 |
| 20260904043002 | 73 | 93 | 2.0 | 3.0 | 0.00 | 0.00 | 0.00 | 46 | 1020.3 |
| 20260904041502 | 74 | 65 | 1.0 | 3.0 | 0.00 | 0.00 | 0.00 | 45 | 1020.4 |
| 20260904040002 | 74 | 94 | 2.0 | 3.0 | 0.00 | 0.00 | 0.00 | 44 | 1020.4 |
| 20260904034503 | 76 | 184 | 3.0 | 6.0 | 0.00 | 0.00 | 0.00 | 44 | 1020.1 |
| 20260904033002 | 76 | 212 | 2.0 | 5.0 | 0.00 | 0.00 | 0.00 | 42 | 1020.1 |
| 20260904030003 | 77 | 268 | 5.0 | 9.0 | 0.00 | 0.00 | 0.00 | 42 | 1020.0 |
| 20260904024503 | 77 | 226 | 5.0 | 9.0 | 0.00 | 0.00 | 0.00 | 41 | 1019.9 |
| 20260904020004 | 79 | 334 | 8.0 | 16.0 | 0.00 | 0.00 | 0.00 | 40 | 1019.4 |
| 20260904014503 | 81 | 304 | 10.0 | 16.0 | 0.00 | 0.00 | 0.00 | 38 | 1019.3 |
| 20260904013003 | 81 | 266 | 9.0 | 13.0 | 0.00 | 0.00 | 0.00 | 35 | 1019.2 |
| 20260904011503 | 82 | 240 | 11.0 | 19.0 | 0.00 | 0.00 | 0.00 | 34 | 1019.0 |
| 20260904010003 | 83 | 253 | 7.0 | 11.0 | 0.00 | 0.00 | 0.00 | 30 | 1018.9 |
| 20260904004503 | 84 | 264 | 7.0 | 11.0 | 0.00 | 0.00 | 0.00 | 29 | 1018.8 |
| 20260904003002 | 84 | 264 | 10.0 | 16.0 | 0.00 | 0.00 | 0.00 | 29 | 1018.8 |
| 20260904001503 | 85 | 229 | 9.0 | 16.0 | 0.00 | 0.00 | 0.00 | 28 | 1018.8 |
| 20260903234501 | 86 | 256 | 8.0 | 15.0 | 0.00 | 0.00 | 0.00 | 27 | 1018.7 |
| 20260903233001 | 87 | 234 | 7.0 | 13.0 | 0.00 | 0.00 | 0.00 | 26 | 1018.7 |
| 20260903231501 | 87 | 246 | 5.0 | 9.0 | 0.00 | 0.00 | 0.00 | 26 | 1018.7 |